CW3577 Weather Reports


time (UTC)temp
F
wind
direction
speed
knots
gust
knots
rain 1hr
in
rain 24hr
in
rain mn
in
humidity
%
barometer
mb
20260504223054 70 212 2.6 12.2 0.00 0.00 0.00 32 1006.5
20260504221511 71 236 5.2 11.3 0.00 0.00 0.00 31 1006.5
20260504220042 72 243 2.6 10.4 0.00 0.00 0.00 31 1006.5
20260504214613 72 244 5.2 12.2 0.00 0.00 0.00 29 1006.7
20260504213028 71 193 3.5 13.0 0.00 0.00 0.00 31 1006.7
20260504211551 72 192 4.3 14.8 0.00 0.00 0.00 30 1006.7
20260504210011 73 208 6.1 12.2 0.00 0.00 0.00 29 1006.6
20260504204529 72 232 4.3 12.2 0.00 0.00 0.00 31 1006.6
20260504203053 72 217 5.2 13.0 0.00 0.00 0.00 30 1006.7
20260504201511 72 188 2.6 8.7 0.00 0.00 0.00 30 1006.6
20260504200037 71 225 4.3 20.9 0.00 0.00 0.00 29 1006.6
20260504194611 72 205 5.2 17.4 0.00 0.00 0.00 29 1006.7
20260504194501 72 244 5.2 17.4 0.00 0.00 0.00 28 1006.7
20260504193025 72 292 2.6 18.2 0.00 0.00 0.00 29 1006.7
20260504191548 72 232 3.5 13.0 0.00 0.00 0.00 29 1006.7
20260504190005 72 280 6.1 22.6 0.00 0.00 0.00 30 1007.0
20260504184534 72 157 7.0 15.6 0.00 0.00 0.00 28 1007.2
20260504183045 71 238 4.3 16.5 0.00 0.00 0.00 28 1007.5
20260504181517 71 207 7.8 17.4 0.00 0.00 0.00 30 1007.4
20260504180031 71 260 5.2 24.3 0.00 0.00 0.00 28 1007.5
20260504174545 71 249 7.0 20.9 0.00 0.00 0.00 30 1007.5
20260504173005 70 213 7.0 13.0 0.00 0.00 0.00 28 1007.7
20260504171533 70 240 6.1 13.9 0.00 0.00 0.00 29 1007.8
20260504120109 54 225 2.6 12.2 0.00 0.01 0.00 49 1010.9
20260504081534 41 360 0.0 1.7 0.00 0.01 0.00 78 1010.9
20260504050021 34 288 0.0 1.7 0.00 0.01 0.00 85 1010.9
20260504044550 34 288 0.0 1.7 0.00 0.01 0.00 83 1010.9
20260504043008 34 288 0.0 0.9 0.00 0.01 0.00 83 1010.9
20260504041529 35 288 0.0 1.7 0.00 0.01 0.00 82 1010.9
20260504040050 35 288 0.0 1.7 0.00 0.01 0.01 82 1010.7
20260504034525 35 288 0.0 0.9 0.00 0.01 0.01 81 1010.6
20260504033046 35 288 0.0 0.9 0.00 0.01 0.01 79 1010.6
20260504031604 36 288 0.0 0.9 0.00 0.01 0.01 78 1010.5
20260504030023 36 288 0.0 0.9 0.00 0.01 0.01 77 1010.5
20260504024556 37 288 0.0 1.7 0.00 0.01 0.01 76 1010.4
20260504023005 37 288 0.0 0.0 0.00 0.01 0.01 75 1010.4
20260504021531 38 288 0.0 0.9 0.00 0.01 0.01 73 1010.3
20260504020051 38 288 0.0 0.9 0.00 0.01 0.01 71 1010.3
20260504014520 39 288 0.0 0.0 0.00 0.01 0.01 68 1010.1
20260504013047 40 288 0.0 0.9 0.00 0.01 0.01 66 1010.0
20260504011510 42 360 0.0 0.9 0.00 0.01 0.01 64 1009.9
20260504010029 43 360 0.0 0.9 0.00 0.01 0.01 61 1009.7
20260504004603 45 288 0.0 0.9 0.00 0.01 0.01 57 1009.5
20260504003021 46 360 0.0 0.9 0.00 0.01 0.01 53 1009.3
20260504001543 48 286 0.0 1.7 0.00 0.01 0.01 46 1009.1
20260504000007 49 294 0.0 7.8 0.00 0.01 0.01 44 1009.0
20260503234525 50 273 4.3 8.7 0.00 0.01 0.01 43 1008.8
20260503233051 51 318 3.5 8.7 0.00 0.01 0.01 42 1008.7
20260503231513 51 280 6.1 10.4 0.00 0.01 0.01 41 1008.6
20260503230036 51 282 2.6 15.6 0.00 0.01 0.01 40 1008.5
20260503224551 52 300 7.0 15.6 0.00 0.01 0.01 39 1008.2